Stations météo

réclame
Mon MeteoGroup
St. Mary's, Grande-Bretagne (3803): Température de l'air & dewpoint: 14.01.2019 11:00:00 - 20.01.2019 11:00:00 (GMT)St. Mary's, Grande-Bretagne (3803): Température de l'air -20cm: 14.01.2019 11:00:00 - 20.01.2019 11:00:00 (GMT)St. Mary's, Grande-Bretagne (3803): Vitesse du vent & gusts: 14.01.2019 11:00:00 - 20.01.2019 11:00:00 (GMT)St. Mary's, Grande-Bretagne (3803): Direction du vent: 14.01.2019 11:00:00 - 20.01.2019 11:00:00 (GMT)St. Mary's, Grande-Bretagne (3803): reduced air pressure: 14.01.2019 11:00:00 - 20.01.2019 11:00:00 (GMT)St. Mary's, Grande-Bretagne (3803): visibility: 14.01.2019 11:00:00 - 20.01.2019 11:00:00 (GMT)St. Mary's, Grande-Bretagne (3803): Quantités de précipitations: 14.01.2019 11:00:00 - 20.01.2019 11:00:00 (GMT)
Date & Time tt [°C] td [°C] tt -20cm [°C] ff [km/h] ff [knt] fx [km/h] fx [knt] dd ppp [hPa] vv [km] rr [mm]
20.01.2019 11:00:00 9,1 5,3 - 22 12 - - N 1018,9 50 -
20.01.2019 10:00:00 8,9 6,0 - 24 13 - - N 1017,9 50 0,0
20.01.2019 09:00:00 8,7 5,8 9,0 21 11 - - N 1016,9 50 0,0
20.01.2019 08:00:00 8,2 7,1 - 15 8 - - NNW 1015,9 50 0,0
20.01.2019 07:00:00 8,2 7,2 - 15 8 - - NW 1015,0 50 0,6
20.01.2019 06:00:00 7,7 6,5 - 11 6 - - NNW 1014,4 8 0,8
20.01.2019 05:00:00 8,8 6,5 - 11 6 - - NW 1013,7 50 0,0
20.01.2019 04:00:00 8,8 5,8 - 13 7 - - NNW 1013,5 50 0,0
20.01.2019 03:00:00 9,2 4,8 - 13 7 - - N 1012,9 50 0,0
20.01.2019 02:00:00 9,0 5,2 - 9 5 - - N 1012,3 50 0,0
20.01.2019 01:00:00 9,1 5,2 - 16 9 - - NNW 1011,9 50 0,0
20.01.2019 00:00:00 8,8 5,5 - 18 10 - - N 1011,5 50 0,0
19.01.2019 23:00:00 8,4 6,5 - 18 10 - - N 1010,7 50 0,2
19.01.2019 22:00:00 8,4 6,7 - 22 12 - - N 1010,2 19 0,0
19.01.2019 21:00:00 8,8 5,7 - 21 11 - - NNW 1009,4 50 0,0
19.01.2019 20:00:00 9,0 6,1 - 18 10 - - N 1008,8 50 0,0
19.01.2019 19:00:00 8,7 6,1 - 18 10 - - NNW 1008,2 50 0,0
19.01.2019 18:00:00 8,7 6,0 - 18 10 - - NNW 1007,7 45 0,0
19.01.2019 17:00:00 8,8 6,1 - 16 9 - - NNW 1006,9 50 0,0
19.01.2019 16:00:00 9,4 6,9 - 16 9 - - NW 1006,5 29 0,0
19.01.2019 15:00:00 9,4 7,7 - 15 8 - - NW 1006,1 23 0,0
19.01.2019 14:00:00 9,7 7,3 - 18 10 - - NW 1006,1 30 0,2
19.01.2019 13:00:00 9,1 7,4 - 24 13 - - WNW 1006,3 4,2 0,2
19.01.2019 12:00:00 8,8 6,7 - 18 10 - - WNW 1006,6 10 0,8
19.01.2019 11:00:00 9,4 7,3 - 16 9 - - WNW 1006,5 10 0,2
19.01.2019 10:00:00 9,3 7,0 - 18 10 - - WNW 1006,3 10 0,0
19.01.2019 09:00:00 8,8 6,8 8,9 21 11 - - WNW 1006,1 10 0,0
19.01.2019 08:00:00 8,5 6,5 - 16 9 - - W 1005,7 50 0,0
19.01.2019 07:00:00 8,6 6,4 - 21 11 - - W 1005,6 45 0,0
19.01.2019 06:00:00 8,5 6,4 - 21 11 - - W 1005,4 50 0,0
19.01.2019 05:00:00 8,6 6,4 - 21 11 - - W 1005,5 45 0,0
19.01.2019 04:00:00 8,8 6,8 - 22 12 - - W 1005,9 35 0,0
19.01.2019 03:00:00 8,7 6,6 - 24 13 - - W 1006,2 50 0,0
19.01.2019 02:00:00 8,7 6,9 - 26 14 - - W 1006,4 50 0,0
19.01.2019 01:00:00 8,6 6,5 - 24 13 - - WSW 1006,7 50 0,0
19.01.2019 00:00:00 9,1 6,6 - 24 13 - - W 1007,1 40 0,0
18.01.2019 23:00:00 8,6 7,0 - 21 11 - - WSW 1007,2 22 0,0
18.01.2019 22:00:00 8,9 6,6 - 24 13 - - W 1007,3 35 0,0
18.01.2019 21:00:00 8,9 7,0 - 21 11 - - WSW 1007,3 24 0,2
18.01.2019 20:00:00 8,5 6,3 - 16 9 - - WSW 1007,5 17 0,6
18.01.2019 19:00:00 8,8 5,6 - 16 9 - - SW 1007,8 40 0,0
18.01.2019 18:00:00 9,5 6,4 - 22 12 - - WSW 1007,9 23 0,0
18.01.2019 17:00:00 9,5 6,0 - 22 12 - - WSW 1007,9 10 0,0
18.01.2019 16:00:00 10,1 6,5 - 22 12 - - W 1007,9 10 0,0
18.01.2019 15:00:00 10,7 7,2 - 24 13 - - WSW 1008,0 10 0,0
18.01.2019 14:00:00 10,5 6,5 - 18 10 - - WSW 1008,4 30 0,0
18.01.2019 13:00:00 10,6 7,0 - 22 12 - - WSW 1008,7 10 0,0
18.01.2019 12:00:00 10,1 7,3 - 22 12 - - WSW 1008,9 10 0,0
18.01.2019 11:00:00 9,6 7,3 - 21 11 - - W 1009,0 50 0,0
18.01.2019 10:00:00 8,5 7,7 - 11 6 65 35 NW 1008,7 10 1,4
18.01.2019 09:00:00 9,8 9,1 8,7 50 27 67 36 S 1008,7 13 0,2
18.01.2019 08:00:00 9,5 8,8 - 54 29 67 36 S 1009,3 11 1,0
18.01.2019 07:00:00 9,3 8,2 - 52 28 67 36 S 1009,8 2,9 0,8
18.01.2019 06:00:00 8,9 8,0 - 52 28 63 34 S 1010,6 5 0,6
18.01.2019 05:00:00 8,4 7,2 - 50 27 63 34 S 1011,8 12 0,6
18.01.2019 04:00:00 8,7 5,5 - 48 26 61 33 S 1012,8 12 0,0
18.01.2019 03:00:00 8,4 4,8 - 46 25 57 31 S 1013,9 20 0,2
18.01.2019 02:00:00 8,6 4,1 - 41 22 54 29 S 1015,2 35 0,0
18.01.2019 01:00:00 8,1 3,2 - 37 20 46 25 S 1016,4 40 0,0
18.01.2019 00:00:00 7,6 1,9 - 29 16 - - S 1017,3 30 0,0
17.01.2019 23:00:00 7,2 0,5 - 26 14 - - S 1017,9 50 0,0
17.01.2019 22:00:00 6,9 0,6 - 18 10 - - SSW 1018,6 45 0,0
17.01.2019 21:00:00 6,3 0,6 - 11 6 - - S 1019,0 40 0,0
17.01.2019 20:00:00 6,1 -1,3 - 2 1 - - NW 1019,3 40 0,0
17.01.2019 19:00:00 5,8 -0,6 - 8 4 - - WNW 1019,7 50 0,0
17.01.2019 18:00:00 5,8 -0,6 - 8 4 - - NNW 1019,8 30 0,0
17.01.2019 17:00:00 5,6 -1,4 - 11 6 - - NW 1019,4 10 0,0
17.01.2019 16:00:00 6,4 -0,5 - 9 5 - - NNW 1019,5 10 0,0
17.01.2019 15:00:00 7,1 -1,2 - 13 7 - - N 1019,2 10 0,0
17.01.2019 14:00:00 7,3 -1,4 - 16 9 - - N 1019,0 10 0,0
17.01.2019 13:00:00 7,4 -1,0 - 21 11 - - N 1018,9 35 0,0
17.01.2019 12:00:00 7,4 -0,7 - 22 12 - - N 1019,3 10 0,0
17.01.2019 11:00:00 7,6 -0,7 - 24 13 46 25 N 1019,0 10 0,0
17.01.2019 10:00:00 6,9 -0,1 - 28 15 46 25 N 1018,4 10 0,0
17.01.2019 09:00:00 7,0 2,0 9,0 31 17 50 27 N 1017,3 10 0,0
17.01.2019 08:00:00 7,8 2,8 - 34 18 48 26 N 1015,4 45 0,0
17.01.2019 07:00:00 7,9 3,9 - 31 17 54 29 N 1014,1 40 0,0
17.01.2019 06:00:00 8,4 4,3 - 35 19 57 31 NNW 1013,0 28 0,0
17.01.2019 05:00:00 8,0 3,2 - 41 22 59 32 NNW 1012,5 35 0,0
17.01.2019 04:00:00 8,6 2,8 - 41 22 63 34 NW 1012,2 19 0,0
17.01.2019 03:00:00 8,6 3,2 - 39 21 61 33 NW 1011,9 25 0,0
17.01.2019 02:00:00 8,5 2,9 - 42 23 59 32 NW 1011,3 30 0,0
17.01.2019 01:00:00 8,4 2,2 - 39 21 59 32 NW 1010,9 35 0,0
17.01.2019 00:00:00 8,0 1,7 - 44 24 61 33 NW 1010,3 45 0,0
16.01.2019 23:00:00 8,2 2,7 - 42 23 65 35 NW 1009,6 35 0,0
16.01.2019 22:00:00 8,7 3,7 - 39 21 65 35 NW 1008,8 40 0,0
16.01.2019 21:00:00 8,8 4,1 - 42 23 63 34 WNW 1007,9 29 0,0
16.01.2019 20:00:00 8,4 5,8 - 31 17 61 33 W 1007,3 21 0,2
16.01.2019 19:00:00 8,6 4,9 - 37 20 59 32 W 1007,1 27 0,0
16.01.2019 18:00:00 8,2 5,2 - 35 19 57 31 W 1006,9 30 0,0
16.01.2019 17:00:00 7,4 5,5 - 41 22 61 33 W 1007,3 12 0,4
16.01.2019 16:00:00 8,7 3,5 - 34 18 59 32 W 1007,5 10 0,0
16.01.2019 15:00:00 9,5 3,6 - 29 16 - - W 1007,5 10 0,0
16.01.2019 14:00:00 9,0 5,4 - 24 13 - - W 1007,8 30 0,0
16.01.2019 13:00:00 8,7 6,4 - 21 11 - - W 1008,1 10 0,2
16.01.2019 12:00:00 7,8 5,8 - 24 13 - - WNW 1008,3 8 0,0
16.01.2019 11:00:00 7,9 6,7 - 22 12 - - NW 1008,3 6 0,2
16.01.2019 10:00:00 8,8 6,8 - 24 13 - - NW 1007,7 10 0,0
16.01.2019 09:00:00 8,7 7,4 9,7 34 18 50 27 WNW 1007,3 7 0,2
16.01.2019 08:00:00 10,2 8,2 - 34 18 46 25 WSW 1007,0 11 0,0
16.01.2019 07:00:00 10,3 7,9 - 34 18 - - SW 1007,3 45 0,0
16.01.2019 06:00:00 10,3 8,7 - 29 16 48 26 SW 1008,0 30 0,0
16.01.2019 05:00:00 10,1 8,8 - 31 17 54 29 SW 1008,8 30 0,8
16.01.2019 04:00:00 10,0 9,5 - 41 22 59 32 SW 1009,5 2,7 0,2
16.01.2019 03:00:00 10,6 9,2 - 41 22 54 29 SSW 1010,4 8 0,0
16.01.2019 02:00:00 10,4 9,0 - 42 23 57 31 SW 1011,4 18 0,2
16.01.2019 01:00:00 10,6 8,2 - 42 23 55 30 SSW 1012,4 20 0,0
16.01.2019 00:00:00 10,4 8,4 - 39 21 54 29 SSW 1013,4 12 0,0
15.01.2019 23:00:00 10,4 8,1 - 41 22 54 29 SW 1014,3 27 0,0
15.01.2019 22:00:00 10,2 8,1 - 39 21 55 30 SSW 1015,1 22 0,0
15.01.2019 21:00:00 10,0 8,5 - 37 20 52 28 SSW 1015,7 26 0,0
15.01.2019 20:00:00 10,0 8,6 - 37 20 52 28 SSW 1016,4 7 0,0
15.01.2019 19:00:00 10,0 8,4 - 35 19 46 25 SSW 1017,1 30 0,0
15.01.2019 18:00:00 9,9 8,3 - 31 17 46 25 SSW 1017,6 29 0,0
15.01.2019 17:00:00 10,0 8,3 - 31 17 - - SSW 1018,3 10 0,0
15.01.2019 16:00:00 9,5 8,3 - 34 18 - - SSW 1018,9 10 0,0
15.01.2019 15:00:00 9,5 8,5 - 31 17 - - SW 1019,5 10 0,0
15.01.2019 14:00:00 9,2 8,6 - 29 16 - - SW 1020,4 10 0,0
15.01.2019 13:00:00 10,0 7,8 - 29 16 - - SW 1021,3 10 0,0
15.01.2019 12:00:00 9,7 8,0 - 34 18 - - SSW 1022,0 10 0,0
15.01.2019 11:00:00 10,0 6,6 - 18 10 - - SW 1022,7 50 0,0
15.01.2019 10:00:00 9,7 6,2 - 22 12 - - SW 1023,1 10 0,0
15.01.2019 09:00:00 9,5 7,2 9,5 18 10 - - SW 1023,2 10 0,0
15.01.2019 08:00:00 9,0 7,2 - 18 10 - - SW 1023,2 10 0,0
15.01.2019 07:00:00 9,2 8,0 - 21 11 - - SW 1023,4 50 0,0
15.01.2019 06:00:00 9,1 7,8 - 21 11 - - WSW 1023,7 45 0,0
15.01.2019 05:00:00 9,0 7,5 - 15 8 - - SW 1024,1 40 0,0
15.01.2019 04:00:00 9,1 6,7 - 15 8 - - WSW 1024,6 45 0,0
15.01.2019 03:00:00 9,0 6,9 - 15 8 - - WSW 1025,3 35 0,0
15.01.2019 02:00:00 8,8 6,7 - 15 8 - - W 1025,7 10 0,0
15.01.2019 01:00:00 9,2 6,0 - 13 7 - - W 1026,1 29 0,0
15.01.2019 00:00:00 9,2 5,8 - 13 7 54 29 WSW 1026,4 30 0,0
14.01.2019 23:00:00 9,3 5,8 - 11 6 - - WSW 1026,6 25 0,0
14.01.2019 22:00:00 8,9 4,8 - 8 4 - - WSW 1026,7 30 0,0
14.01.2019 21:00:00 8,6 3,9 - 9 5 - - W 1026,7 30 0,0
14.01.2019 20:00:00 8,9 3,8 - 5 3 - - WNW 1026,8 40 0,0
14.01.2019 19:00:00 9,0 4,2 - 9 5 - - WNW 1026,9 40 0,0
14.01.2019 18:00:00 9,1 3,6 - 9 5 - - NNW 1027,0 50 0,0
14.01.2019 17:00:00 9,3 4,3 - 16 9 - - NW 1026,9 45 0,0
14.01.2019 16:00:00 9,6 4,5 - 13 7 - - NNW 1026,5 10 0,0
14.01.2019 15:00:00 9,6 3,8 - 21 11 - - NNW 1026,5 10 0,0
14.01.2019 14:00:00 9,6 4,1 - 15 8 - - NW 1026,7 30 0,0
14.01.2019 13:00:00 9,8 4,7 - 16 9 - - NNW 1026,8 10 0,0
14.01.2019 12:00:00 10,0 4,1 - 15 8 - - N 1026,9 10 0,0
14.01.2019 11:00:00 9,7 3,4 - 18 10 - - NNW 1027,1 10 0,0

tt = Température de l'air
td = dewpoint
tt -20cm = Température de l'air -20cm
ff = Vitesse du vent
fx = gusts
dd = Direction du vent
ppp = reduced air pressure
vv = visibility
rr = Quantités de précipitations

stations d'obs. à proximité